Location: Dentlein
(49.1477°N, 10.4231°E)
Time: 04:07:25
(UTC+00:00)

ACS3 Solar Sail - Visible Passes

Search period start: 14 July 2024 00:00
Search period end: 24 July 2024 00:00
Orbit: 992 x 1023 km, 97.4° (Epoch: 13 July)

Date Brightness Start Highest point End Pass type
(mag) Time Alt. Az. Time Alt. Az. Time Alt. Az.
14 Jul 5.0 19:59:59 10° SSE 20:06:07 68° ENE 20:12:20 10° N visible
14 Jul 6.6 21:45:55 10° SW 21:50:48 24° W 21:55:44 10° NW visible
15 Jul 5.1 20:34:20 10° S 20:40:32 72° W 20:46:49 10° NNW visible
15 Jul 7.2 22:23:08 10° WSW 22:25:49 13° W 22:28:31 10° NW visible
16 Jul 5.9 21:09:20 10° SSW 21:15:09 41° W 21:21:01 10° NNW visible
17 Jul 4.9 19:59:06 10° SSE 20:05:15 70° ENE 20:11:29 10° N visible
17 Jul 6.7 21:45:09 10° SW 21:49:58 23° W 21:54:50 10° NW visible
18 Jul 5.1 20:33:29 10° S 20:39:41 70° W 20:45:57 10° NNW visible
18 Jul 7.2 22:22:29 10° WSW 22:24:59 12° W 22:27:30 10° WNW visible
19 Jul 5.9 21:08:31 10° SSW 21:14:18 40° W 21:20:09 10° NNW visible
20 Jul 4.9 19:58:12 10° SSE 20:04:22 72° ENE 20:10:38 10° N visible
20 Jul 6.7 21:44:22 10° SW 21:49:07 23° W 21:53:55 10° NW visible
21 Jul 5.1 20:32:37 10° S 20:38:49 68° W 20:45:05 10° NNW visible
21 Jul 7.2 22:21:51 10° WSW 22:24:09 12° W 22:26:28 10° WNW visible
22 Jul 6.0 21:07:42 10° SSW 21:13:26 39° W 21:19:16 10° NNW visible
23 Jul 4.9 19:57:19 10° SSE 20:03:30 74° ENE 20:09:47 10° N visible
23 Jul 6.8 21:43:35 10° SW 21:48:16 22° W 21:53:01 10° NW visible
